Hourly Weather Rude Selo

Today, 29 July, Thursday

Time Temperature Precipitation Wind Pressure Humidity
00:00 +23°C° 0.1 mm 1 mps 741 mmHg 81%
01:00 +21°C° 0.1 mm 2 mps 741 mmHg 84%
02:00 +21°C° 0.1 mm 2 mps 741 mmHg 86%
03:00 +21°C° 0 mm 2 mps 741 mmHg 86%
04:00 +20°C° 0 mm 2 mps 740 mmHg 86%
05:00 +20°C° 0 mm 2 mps 740 mmHg 85%
06:00 +23°C° 0 mm 2 mps 740 mmHg 79%
07:00 +24°C° 0 mm 2 mps 740 mmHg 72%
08:00 +26°C° 0 mm 2 mps 740 mmHg 66%
09:00 +28°C° 0 mm 2 mps 740 mmHg 61%
10:00 +29°C° 0 mm 3 mps 740 mmHg 56%
11:00 +31°C° 0 mm 3 mps 740 mmHg 51%
12:00 +33°C° 0 mm 3 mps 740 mmHg 48%
13:00 +33°C° 0 mm 3 mps 739 mmHg 46%
14:00 +34°C° 0 mm 3 mps 739 mmHg 44%
15:00 +34°C° 0 mm 3 mps 739 mmHg 46%
16:00 +34°C° 0 mm 3 mps 738 mmHg 48%
17:00 +34°C° 0 mm 2 mps 738 mmHg 50%
18:00 +30°C° 0.2 mm 3 mps 738 mmHg 58%
19:00 +28°C° 0.2 mm 4 mps 738 mmHg 66%
20:00 +26°C° 0.2 mm 4 mps 739 mmHg 73%
21:00 +25°C° 2.4 mm 4 mps 739 mmHg 80%
22:00 +22°C° 2.4 mm 4 mps 739 mmHg 86%
23:00 +21°C° 2.4 mm 4 mps 739 mmHg 93%

Tomorrow, 30 July, Friday

Time Temperature Precipitation Wind Pressure Humidity
00:00 +21°C° 0.2 mm 4 mps 739 mmHg 93%
01:00 +20°C° 0.2 mm 4 mps 739 mmHg 94%
02:00 +20°C° 0.2 mm 4 mps 739 mmHg 94%
03:00 +19°C° 0.1 mm 3 mps 740 mmHg 94%
04:00 +19°C° 0.1 mm 3 mps 740 mmHg 94%
05:00 +19°C° 0.1 mm 3 mps 740 mmHg 95%
06:00 +20°C° 0 mm 3 mps 740 mmHg 89%
07:00 +22°C° 0 mm 3 mps 740 mmHg 83%
08:00 +24°C° 0 mm 3 mps 741 mmHg 77%
09:00 +25°C° 0 mm 3 mps 741 mmHg 68%
10:00 +27°C° 0 mm 4 mps 741 mmHg 60%
11:00 +28°C° 0 mm 4 mps 741 mmHg 51%
12:00 +29°C° 0 mm 4 mps 741 mmHg 48%
13:00 +29°C° 0 mm 3 mps 741 mmHg 46%
14:00 +30°C° 0 mm 3 mps 741 mmHg 43%
15:00 +30°C° 0 mm 3 mps 740 mmHg 46%
16:00 +29°C° 0 mm 3 mps 740 mmHg 48%
17:00 +29°C° 0 mm 3 mps 740 mmHg 51%
18:00 +27°C° 0 mm 2 mps 740 mmHg 55%
19:00 +26°C° 0 mm 2 mps 740 mmHg 59%
20:00 +24°C° 0 mm 2 mps 740 mmHg 64%
21:00 +24°C° 0 mm 2 mps 740 mmHg 64%
22:00 +23°C° 0 mm 2 mps 740 mmHg 64%
23:00 +23°C° 0 mm 2 mps 740 mmHg 64%

Day after tomorrow, 31 July, Saturday

Time Temperature Precipitation Wind Pressure Humidity
00:00 +23°C° 0 mm 2 mps 740 mmHg 65%
01:00 +21°C° 0 mm 2 mps 740 mmHg 66%
02:00 +21°C° 0 mm 2 mps 740 mmHg 67%
03:00 +20°C° 0 mm 2 mps 740 mmHg 70%
04:00 +20°C° 0 mm 2 mps 740 mmHg 73%
05:00 +19°C° 0 mm 2 mps 740 mmHg 75%
06:00 +21°C° 0 mm 2 mps 740 mmHg 71%
07:00 +24°C° 0 mm 2 mps 741 mmHg 66%
08:00 +26°C° 0 mm 2 mps 741 mmHg 61%
09:00 +27°C° 0 mm 2 mps 741 mmHg 56%
10:00 +29°C° 0 mm 2 mps 741 mmHg 51%
11:00 +30°C° 0 mm 2 mps 741 mmHg 45%
12:00 +31°C° 0 mm 2 mps 741 mmHg 44%
13:00 +31°C° 0 mm 2 mps 740 mmHg 43%
14:00 +32°C° 0 mm 2 mps 740 mmHg 42%
15:00 +32°C° 0 mm 2 mps 740 mmHg 43%
16:00 +31°C° 0 mm 2 mps 740 mmHg 45%
17:00 +31°C° 0 mm 2 mps 740 mmHg 46%
18:00 +29°C° 0 mm 2 mps 740 mmHg 51%
19:00 +28°C° 0 mm 3 mps 739 mmHg 56%
20:00 +26°C° 0 mm 3 mps 739 mmHg 60%
21:00 +25°C° 0 mm 3 mps 739 mmHg 59%
22:00 +24°C° 0 mm 3 mps 739 mmHg 59%
23:00 +24°C° 0 mm 3 mps 739 mmHg 58%

1 August, Sunday

Time Temperature Precipitation Wind Pressure Humidity
00:00 +22°C° 0 mm 3 mps 739 mmHg 59%
01:00 +22°C° 0 mm 3 mps 739 mmHg 60%
02:00 +21°C° 0 mm 3 mps 739 mmHg 61%
03:00 +21°C° 0.1 mm 3 mps 739 mmHg 66%
04:00 +21°C° 0.1 mm 3 mps 739 mmHg 71%
05:00 +20°C° 0.1 mm 3 mps 739 mmHg 76%
06:00 +22°C° 0 mm 3 mps 739 mmHg 75%
07:00 +24°C° 0 mm 3 mps 739 mmHg 74%
08:00 +25°C° 0 mm 3 mps 739 mmHg 73%
09:00 +26°C° 0 mm 3 mps 740 mmHg 69%
10:00 +28°C° 0 mm 2 mps 740 mmHg 65%
11:00 +29°C° 0 mm 2 mps 740 mmHg 60%
12:00 +30°C° 0 mm 2 mps 740 mmHg 58%
13:00 +31°C° 0 mm 2 mps 740 mmHg 55%
14:00 +31°C° 0 mm 2 mps 740 mmHg 52%
15:00 +31°C° 0 mm 2 mps 739 mmHg 52%
16:00 +31°C° 0 mm 2 mps 739 mmHg 51%
17:00 +31°C° 0 mm 2 mps 739 mmHg 50%
18:00 +30°C° 0 mm 1 mps 739 mmHg 56%
19:00 +28°C° 0 mm 1 mps 738 mmHg 61%
20:00 +24°C° 0 mm 0 mps 738 mmHg 67%
21:00 +26°C° 0 mm 1 mps 738 mmHg 69%
22:00 +25°C° 0 mm 1 mps 738 mmHg 70%
23:00 +25°C° 0 mm 2 mps 738 mmHg 72%

2 August, Monday

Time Temperature Precipitation Wind Pressure Humidity
00:00 +24°C° 0.9 mm 2 mps 738 mmHg 78%
01:00 +23°C° 0.9 mm 2 mps 738 mmHg 84%
02:00 +23°C° 0.9 mm 2 mps 738 mmHg 90%
03:00 +21°C° 0.1 mm 3 mps 737 mmHg 89%
04:00 +21°C° 0.1 mm 3 mps 737 mmHg 88%
05:00 +21°C° 0.1 mm 4 mps 736 mmHg 87%
06:00 +22°C° 0 mm 4 mps 736 mmHg 81%
07:00 +23°C° 0 mm 4 mps 737 mmHg 76%
08:00 +26°C° 0 mm 4 mps 737 mmHg 70%
09:00 +27°C° 0 mm 4 mps 737 mmHg 66%
10:00 +28°C° 0 mm 4 mps 737 mmHg 62%
11:00 +29°C° 0 mm 4 mps 737 mmHg 59%
12:00 +30°C° 0 mm 4 mps 737 mmHg 56%
13:00 +32°C° 0 mm 5 mps 737 mmHg 53%
14:00 +33°C° 0 mm 5 mps 736 mmHg 50%
15:00 +32°C° 0.3 mm 6 mps 737 mmHg 55%
16:00 +30°C° 0.3 mm 6 mps 737 mmHg 61%
17:00 +29°C° 0.3 mm 6 mps 737 mmHg 67%
18:00 +26°C° 0.7 mm 5 mps 737 mmHg 72%
19:00 +23°C° 0.7 mm 5 mps 738 mmHg 78%
20:00 +20°C° 0.7 mm 4 mps 738 mmHg 83%
21:00 +19°C° 0 mm 4 mps 739 mmHg 85%
22:00 +19°C° 0 mm 3 mps 739 mmHg 86%
23:00 +18°C° 0 mm 3 mps 740 mmHg 87%

3 August, Tuesday

Time Temperature Precipitation Wind Pressure Humidity
00:00 +17°C° 0 mm 3 mps 740 mmHg 89%
01:00 +16°C° 0 mm 3 mps 741 mmHg 90%
02:00 +16°C° 0 mm 3 mps 741 mmHg 92%
03:00 +14°C° 0 mm 3 mps 741 mmHg 93%
04:00 +13°C° 0 mm 3 mps 742 mmHg 94%
05:00 +13°C° 0 mm 3 mps 742 mmHg 94%
06:00 +15°C° 0 mm 2 mps 742 mmHg 85%
07:00 +17°C° 0 mm 2 mps 743 mmHg 76%
08:00 +18°C° 0 mm 2 mps 743 mmHg 67%
09:00 +20°C° 0 mm 2 mps 743 mmHg 62%
10:00 +21°C° 0 mm 2 mps 743 mmHg 56%
11:00 +23°C° 0 mm 1 mps 743 mmHg 51%
12:00 +24°C° 0 mm 1 mps 743 mmHg 49%
13:00 +25°C° 0 mm 1 mps 743 mmHg 48%
14:00 +25°C° 0 mm 1 mps 743 mmHg 46%
15:00 +25°C° 0 mm 1 mps 743 mmHg 47%
16:00 +25°C° 0 mm 1 mps 743 mmHg 47%
17:00 +25°C° 0 mm 1 mps 743 mmHg 48%
18:00 +24°C° 0 mm 1 mps 743 mmHg 52%
19:00 +22°C° 0 mm 1 mps 743 mmHg 57%
20:00 +21°C° 0 mm 1 mps 743 mmHg 61%
21:00 +20°C° 0 mm 1 mps 743 mmHg 62%
22:00 +20°C° 0 mm 1 mps 743 mmHg 62%
23:00 +20°C° 0 mm 1 mps 743 mmHg 63%
Show more

We Need Your Consent

Meteoprog and our Service Providers may store and access personal data such as cookies, device identifiers or other similar technologies on your device and process such data to personalise content and ads, as well as provide social media features and to analyse the traffic.

  • Store and/or access information on your device

    Cookies, device identifiers or other information can be stored or accessed on your device for the purposes indicated above.

  • Personalised ads and content, ad and content measurement, audience insights, and products development

    Ads and content can be personalised based on a profile. More data can be added to better personalise ads and content. Ad and content performance can be measured. Insights about the audience who saw the ads and content can be derived. Such data can be used to develop or improve user’s experience, systems and software.

By clicking ‘I Agree’ you will allow the use of indicated cookies, device identifiers, web beacons or other similar technologies. Your settings can be changed in the browser on your device.

For certain purposes, legitimate interests may be relied on, rather than consent. You can read more about this in our Privacy and Cookie Policy.